ROMMA est une association bénévole à but non lucratif. Votre soutien est indispensable : ADHERER à ROMMA ou FAIRE un DON

Taninges - (74, Haute-Savoie)

Vallée du Giffre (635 m)   Longitude: 06° 35' 38" E   Latitude: 46° 06' 21" N Station romma n°98
 

Détail journalier du     <<     >>

Température Precipitation Humidité Pression Vent Dir Rafale Dir. rafale Ensol.
Heure (°C) (mm) (%) (hPa) (km/h) (km/h) (min)
01:00 8.1095101706S0
02:00 7.9096101705S0
03:00 7.10961017000
04:00 7.60.297101603SSE0
05:00 7.509710161SSE5O0
06:00 7.2097101605SO0
07:00 7.10.29710161SO5E0
08:00 7.009710171SSE6E0
09:00 7.609810171SSO5ESE0
10:00 9.109810171S5S35
11:00 12.109810162S6SSE60
12:00 15.608810152OSO8OSO60
13:00 18.207110147OSO19SO60
14:00 19.9067101411OSO21SO60
15:00 20.506410127OSO18OSO60
16:00 21.106010115SO10SO60
17:00 21.406110103OSO11SO60
18:00 18.307210113ONO6OSO20
19:00 14.008710121O5NE0
20:00 12.8090101203SE0
21:00 11.8091101205SE0
22:00 11.009310121SE8SSO0
23:00 9.909410121NE6ENE0
minuit 9.409510111E6SO0

Graphique du 14-10-2019

 

Serveur OMMA